| time (UTC) | temp F | wind direction | speed MPH | gust MPH | rain 1hr in | rain 24hr in | rain mn in | humidity % | barometer mb |
| 20260905051517 | 60 | 220 | 12.0 | 15.0 | 0.00 | 0.00 | 0.00 | 81 | 1024.9 |
| 20260905044517 | 60 | 200 | 10.0 | 14.0 | 0.00 | 0.00 | 0.00 | 81 | 1024.7 |
| 20260905043016 | 60 | 201 | 11.0 | 14.0 | 0.00 | 0.00 | 0.00 | 81 | 1024.6 |
| 20260905041517 | 60 | 201 | 8.0 | 10.0 | 0.00 | 0.00 | 0.00 | 80 | 1024.7 |
| 20260905040017 | 60 | 217 | 9.0 | 12.0 | 0.00 | 0.00 | 0.00 | 81 | 1024.8 |
| 20260905034516 | 59 | 221 | 12.0 | 15.0 | 0.00 | 0.00 | 0.00 | 83 | 1025.0 |
| 20260905033016 | 59 | 211 | 13.0 | 17.0 | 0.00 | 0.00 | 0.00 | 84 | 1025.1 |
| 20260905031516 | 59 | 207 | 15.0 | 19.0 | 0.00 | 0.00 | 0.00 | 85 | 1025.2 |
| 20260905030016 | 59 | 208 | 17.0 | 22.0 | 0.00 | 0.00 | 0.00 | 85 | 1025.2 |
| 20260905024516 | 59 | 213 | 20.0 | 26.0 | 0.00 | 0.00 | 0.00 | 86 | 1025.2 |
| 20260905023016 | 58 | 212 | 19.0 | 23.0 | 0.00 | 0.00 | 0.00 | 86 | 1025.2 |
| 20260905021516 | 59 | 205 | 19.0 | 25.0 | 0.00 | 0.00 | 0.00 | 83 | 1025.2 |
| 20260905020016 | 59 | 211 | 20.0 | 24.0 | 0.00 | 0.00 | 0.00 | 83 | 1025.3 |
| 20260905011515 | 60 | 210 | 19.0 | 23.0 | 0.00 | 0.00 | 0.00 | 80 | 1025.5 |
| 20260905010016 | 60 | 215 | 17.0 | 21.0 | 0.00 | 0.00 | 0.00 | 81 | 1025.6 |
| 20260905004515 | 60 | 214 | 14.0 | 17.0 | 0.00 | 0.00 | 0.00 | 80 | 1025.8 |
| 20260905003015 | 60 | 205 | 15.0 | 19.0 | 0.00 | 0.00 | 0.00 | 79 | 1025.9 |
| 20260905001515 | 60 | 206 | 15.0 | 19.0 | 0.00 | 0.00 | 0.00 | 80 | 1026.0 |
| 20260904234514 | 60 | 214 | 17.0 | 21.0 | 0.00 | 0.00 | 0.00 | 80 | 1026.3 |
| 20260904231514 | 61 | 212 | 17.0 | 21.0 | 0.00 | 0.00 | 0.00 | 80 | 1026.5 |
| 20260904230015 | 61 | 217 | 19.0 | 23.0 | 0.00 | 0.00 | 0.00 | 80 | 1026.6 |
| 20260904224514 | 60 | 222 | 17.0 | 20.0 | 0.00 | 0.00 | 0.00 | 81 | 1026.8 |
| 20260904223014 | 60 | 215 | 17.0 | 21.0 | 0.00 | 0.00 | 0.00 | 81 | 1026.8 |
| 20260904221513 | 61 | 217 | 19.0 | 24.0 | 0.00 | 0.00 | 0.00 | 80 | 1026.9 |
| 20260904220015 | 61 | 213 | 17.0 | 28.0 | 0.00 | 0.00 | 0.00 | 80 | 1027.0 |
| 20260904214513 | 61 | 204 | 14.0 | 20.0 | 0.00 | 0.00 | 0.00 | 80 | 1027.0 |
| 20260904213013 | 61 | 204 | 14.0 | 22.0 | 0.00 | 0.00 | 0.00 | 80 | 1027.0 |
| 20260904211514 | 60 | 198 | 14.0 | 22.0 | 0.00 | 0.00 | 0.00 | 80 | 1027.1 |
| 20260904210014 | 61 | 188 | 13.0 | 20.0 | 0.00 | 0.00 | 0.00 | 79 | 1027.2 |
| 20260904204513 | 61 | 184 | 12.0 | 23.0 | 0.00 | 0.00 | 0.00 | 79 | 1027.5 |
| 20260904203019 | 61 | 197 | 12.0 | 23.0 | 0.00 | 0.00 | 0.00 | 77 | 1027.6 |
| 20260904201519 | 61 | 197 | 14.0 | 18.0 | 0.00 | 0.00 | 0.00 | 76 | 1027.5 |
| 20260904200019 | 62 | 196 | 16.0 | 23.0 | 0.00 | 0.00 | 0.00 | 75 | 1027.5 |
| 20260904194519 | 62 | 201 | 17.0 | 25.0 | 0.00 | 0.00 | 0.00 | 75 | 1027.5 |
| 20260904193019 | 62 | 198 | 16.0 | 24.0 | 0.00 | 0.00 | 0.00 | 75 | 1027.6 |
| 20260904191519 | 61 | 183 | 13.0 | 21.0 | 0.00 | 0.00 | 0.00 | 77 | 1027.8 |
| 20260904190019 | 61 | 188 | 13.0 | 17.0 | 0.00 | 0.00 | 0.00 | 77 | 1027.6 |
| 20260904184518 | 61 | 196 | 11.0 | 20.0 | 0.00 | 0.00 | 0.00 | 73 | 1027.7 |
| 20260904181517 | 61 | 198 | 14.0 | 24.0 | 0.00 | 0.00 | 0.00 | 74 | 1027.7 |
| 20260904180019 | 61 | 196 | 12.0 | 19.0 | 0.00 | 0.00 | 0.00 | 73 | 1027.6 |
| 20260904174517 | 62 | 203 | 17.0 | 26.0 | 0.00 | 0.00 | 0.00 | 67 | 1027.1 |
| 20260904173018 | 63 | 203 | 15.0 | 22.0 | 0.00 | 0.00 | 0.00 | 68 | 1027.3 |
| 20260904170019 | 64 | 200 | 11.0 | 18.0 | 0.00 | 0.00 | 0.00 | 63 | 1027.4 |
| 20260904164517 | 64 | 188 | 13.0 | 16.0 | 0.00 | 0.00 | 0.00 | 59 | 1027.5 |
| 20260904163017 | 65 | 188 | 13.0 | 18.0 | 0.00 | 0.00 | 0.00 | 56 | 1027.5 |
| 20260904161517 | 65 | 191 | 12.0 | 16.0 | 0.00 | 0.00 | 0.00 | 60 | 1027.5 |
| 20260904160017 | 65 | 189 | 13.0 | 21.0 | 0.00 | 0.00 | 0.00 | 63 | 1027.7 |
| 20260904154517 | 65 | 193 | 14.0 | 20.0 | 0.00 | 0.00 | 0.00 | 62 | 1027.5 |
| 20260904153016 | 66 | 195 | 13.0 | 19.0 | 0.00 | 0.00 | 0.00 | 68 | 1027.7 |
| 20260904150018 | 66 | 194 | 12.0 | 21.0 | 0.00 | 0.00 | 0.00 | 65 | 1027.8 |
| 20260904144516 | 65 | 184 | 13.0 | 26.0 | 0.00 | 0.00 | 0.00 | 71 | 1028.2 |
| 20260904143016 | 65 | 181 | 11.0 | 18.0 | 0.00 | 0.00 | 0.00 | 74 | 1028.4 |
| 20260904141516 | 66 | 183 | 10.0 | 18.0 | 0.00 | 0.01 | 0.00 | 72 | 1028.5 |
| 20260904134516 | 66 | 189 | 10.0 | 18.0 | 0.00 | 0.01 | 0.00 | 68 | 1028.2 |
| 20260904133015 | 66 | 183 | 11.0 | 19.0 | 0.00 | 0.01 | 0.00 | 70 | 1028.4 |
| 20260904131516 | 65 | 171 | 10.0 | 18.0 | 0.00 | 0.01 | 0.00 | 73 | 1028.6 |
| 20260904130015 | 66 | 185 | 10.0 | 18.0 | 0.00 | 0.01 | 0.00 | 70 | 1028.6 |
| 20260904124515 | 65 | 166 | 7.0 | 18.0 | 0.00 | 0.01 | 0.00 | 72 | 1028.8 |
| 20260904123015 | 65 | 179 | 8.0 | 12.0 | 0.00 | 0.01 | 0.00 | 71 | 1028.8 |
| 20260904113014 | 64 | 163 | 10.0 | 18.0 | 0.00 | 0.01 | 0.00 | 80 | 1028.9 |
| 20260904111514 | 63 | 148 | 12.0 | 18.0 | 0.00 | 0.01 | 0.00 | 83 | 1028.8 |
| 20260904110016 | 63 | 143 | 13.0 | 19.0 | 0.00 | 0.02 | 0.00 | 84 | 1028.8 |
| 20260904104514 | 64 | 156 | 12.0 | 18.0 | 0.00 | 0.02 | 0.00 | 82 | 1028.8 |
| 20260904103013 | 64 | 162 | 9.0 | 16.0 | 0.00 | 0.02 | 0.00 | 80 | 1028.8 |
| 20260904101514 | 64 | 151 | 10.0 | 18.0 | 0.00 | 0.02 | 0.00 | 80 | 1028.9 |
| 20260904100014 | 63 | 140 | 9.0 | 15.0 | 0.00 | 0.02 | 0.00 | 83 | 1029.0 |
| 20260904093014 | 62 | 137 | 10.0 | 15.0 | 0.00 | 0.02 | 0.00 | 82 | 1028.9 |
| 20260904091514 | 62 | 147 | 9.0 | 16.0 | 0.00 | 0.02 | 0.00 | 82 | 1028.8 |
| 20260904090015 | 62 | 143 | 11.0 | 17.0 | 0.00 | 0.02 | 0.00 | 82 | 1029.0 |
| 20260904084513 | 62 | 143 | 9.0 | 13.0 | 0.00 | 0.02 | 0.00 | 80 | 1028.8 |
| 20260904080019 | 63 | 188 | 3.0 | 6.0 | 0.00 | 0.02 | 0.00 | 72 | 1028.6 |
| 20260904074519 | 64 | 168 | 3.0 | 7.0 | 0.00 | 0.02 | 0.00 | 70 | 1028.5 |
| 20260904073019 | 63 | 158 | 1.0 | 4.0 | 0.00 | 0.02 | 0.00 | 66 | 1028.4 |
| 20260904071518 | 63 | 146 | 2.0 | 4.0 | 0.00 | 0.02 | 0.00 | 72 | 1028.5 |
| 20260904070019 | 62 | 164 | 4.0 | 6.0 | 0.00 | 0.02 | 0.00 | 74 | 1028.4 |
| 20260904064517 | 62 | 163 | 2.0 | 4.0 | 0.00 | 0.02 | 0.00 | 73 | 1028.6 |
| 20260904063018 | 62 | 163 | 2.0 | 5.0 | 0.00 | 0.03 | 0.00 | 72 | 1028.5 |
| 20260904061518 | 62 | 163 | 1.0 | 4.0 | 0.00 | 0.03 | 0.00 | 72 | 1028.5 |
| 20260904060018 | 62 | 162 | 2.0 | 4.0 | 0.00 | 0.03 | 0.00 | 72 | 1028.4 |
| 20260904054518 | 62 | 115 | 2.0 | 3.0 | 0.00 | 0.03 | 0.00 | 69 | 1028.2 |